Flag for Trinidad and Tobago Weather past 2 weeks in Port of Spain, Trinidad and Tobago

Now
84 °F

Scattered showers. Scattered clouds.


Feels Like: 94 °F
Forecast: 81 / 88 °F
Wind: 8 mph from East

Location: Piarco International Airport - Trinidad

Current Time: Sep 5, 2015 at 10:31:46 AM

Latest Report: Sep 5, 2015 at 9:00 AM


Visibility: N/A

Pressure: 29.98 "Hg

Humidity: 79%

Dew point: 77 °F

Location of Port of SpainLocation

Historic Weather in Port of Spain — Graph

°F

Port of Spain temperature yesterday

Maximum temperature yesterday: 91 °F (at 11:00 AM)
Minimum temperature yesterday: 77 °F (at 2:00 AM)
Average temperature yesterday: 84 °F

Past Weeks' High & Low Weather Summary

 TemperatureHumidityPressure
High95 °F (Aug 25, 2:00 PM)100% (Aug 31, 10:00 AM)32.52 "Hg (Aug 31, 10:00 AM)
Low75 °F (Aug 22, 3:00 AM)49% (Aug 25, 12:00 PM)29.80 "Hg (Aug 22, 4:00 PM)
Average84 °F78%29.91 "Hg
* Reported Aug 21 9:00 AM — Sep 5 9:00 AM, Port of Spain, Weather by CustomWeather, © 2015

Note: Actual official high and low records may vary slightly from our data, if they occured in-between our weather recording intervals... More about our weather records

Advertising

Port of Spain weather history for previous 24 hours

 ConditionsComfort  
Time TempWeatherWind HumidityBarometerVisibility
9:00 AM
Sat, Sep 5
84 °FScattered showers. Scattered clouds.8 mph79%29.98 "HgN/A
8:00 AM84 °FPassing clouds.5 mph74%29.95 "HgN/A
7:00 AM81 °FSprinkles. Scattered clouds.8 mph84%29.95 "HgN/A
6:00 AM77 °FScattered showers. Passing clouds.No wind94%29.92 "HgN/A
5:00 AM79 °FPassing clouds.No wind89%29.92 "HgN/A
4:00 AM77 °FPassing clouds.No wind94%29.89 "HgN/A
3:00 AM77 °FPassing clouds.No wind94%29.89 "HgN/A
2:00 AM79 °FPassing clouds.No wind89%29.92 "HgN/A
1:00 AM79 °FPassing clouds.No wind89%29.92 "HgN/A
12:00 AM79 °FPassing clouds.No wind89%29.92 "HgN/A
11:00 PM
Fri, Sep 4
81 °FPassing clouds.No wind84%29.95 "HgN/A
10:00 PM81 °FPassing clouds.No wind84%29.95 "HgN/A
9:00 PM81 °FPassing clouds.No wind84%29.92 "HgN/A
8:00 PM82 °FPassing clouds.No wind79%29.92 "HgN/A
7:00 PM82 °FPassing clouds.6 mph79%29.89 "HgN/A
6:00 PM84 °FPassing clouds.7 mph70%29.89 "HgN/A
5:00 PM88 °FPassing clouds.9 mph62%29.86 "HgN/A
4:00 PM90 °FPassing clouds.12 mph59%29.86 "HgN/A
3:00 PM91 °FPassing clouds.13 mph52%29.86 "HgN/A
2:00 PM91 °FPassing clouds.12 mph56%29.89 "HgN/A
1:00 PM91 °FPassing clouds.9 mph52%29.92 "HgN/A
12:00 PM91 °FPassing clouds.12 mph52%29.95 "HgN/A
11:00 AM91 °FPassing clouds.13 mph52%29.98 "HgN/A
10:00 AM88 °FScattered clouds.10 mph66%29.98 "HgN/A
Weather by CustomWeather, © 2015

See weather overviewHow to use our weather pages